Preston, Minnesota, United States (55965)
Lat: 43.67N, Lon: 92.08W
Wx Zone: MNZ095
Local Info
Past Weather Observations for Today

NOTE: This archive is for the closest National Weather Service station to Preston. Information may differ from the station used for current weather conditions.

Click here for Long-term Archive

Time Weather Temperature Dewpoint Humidity Pressure Winds Precip Visibility
19:36
Overcast
Fog And Mist
36°F / 2°C 34°F / 1°C 93% 29.8 in
(1009 mb)
S 17.3 mph
(S 28 kph)
- 4SM
19:15
Overcast
Fog And Mist
36°F / 2°C 34°F / 1°C 93% 29.8 in
(1009 mb)
S 20.7 mph
(S 33 kph)
- 5SM
18:55
Overcast
Fog And Mist
36°F / 2°C 34°F / 1°C 93% 29.8 in
(1009 mb)
S 21.9 mph
(S 35 kph)
- 4SM
18:36
Overcast
Fog And Mist
36°F / 2°C 34°F / 1°C 93% 29.8 in
(1009 mb)
S 19.6 mph
(S 32 kph)
- 4SM
18:15
Overcast
Fog And Mist
36°F / 2°C 34°F / 1°C 93% 29.8 in
(1009 mb)
S 19.6 mph
(S 32 kph)
- 4SM
17:55
Overcast
Fog And Mist
36°F / 2°C 34°F / 1°C 93% 29.8 in
(1009 mb)
S 20.7 mph
(S 33 kph)
- 5SM
17:36
Overcast
Fog And Mist
36°F / 2°C 34°F / 1°C 93% 29.77 in
(1008 mb)
S 23 mph
(S 37 kph)
- 4SM
17:15
Overcast
Fog And Mist
36°F / 2°C 34°F / 1°C 93% 29.77 in
(1008 mb)
S 26.5 mph
(S 43 kph)
- 4SM
16:55
Overcast
Fog And Mist
36°F / 2°C 34°F / 1°C 93% 29.77 in
(1008 mb)
S 23 mph
(S 37 kph)
- 2 1/2SM
16:35
Overcast
Fog And Mist
36°F / 2°C 34°F / 1°C 93% 29.8 in
(1009 mb)
S 18.4 mph
(S 30 kph)
- 1 3/4SM
16:15
Overcast
Fog And Mist
36°F / 2°C 34°F / 1°C 93% 29.8 in
(1009 mb)
S 19.6 mph
(S 32 kph)
- 1 3/4SM
15:55
Overcast
Fog And Mist
36°F / 2°C 34°F / 1°C 93% 29.8 in
(1009 mb)
S 21.9 mph
(S 35 kph)
- 1 3/4SM
15:35
Overcast
Fog And Mist
36°F / 2°C 34°F / 1°C 93% 29.8 in
(1009 mb)
S 16.1 mph
(S 26 kph)
- 1 1/2SM
15:15
Overcast
Fog And Mist
36°F / 2°C 34°F / 1°C 93% 29.8 in
(1009 mb)
S 17.3 mph
(S 28 kph)
- 1 1/4SM
14:55
Overcast
Fog And Mist
36°F / 2°C 34°F / 1°C 93% 29.8 in
(1009 mb)
S 19.6 mph
(S 32 kph)
- 1 1/4SM
14:35
Overcast
Fog And Mist
36°F / 2°C 34°F / 1°C 93% 29.83 in
(1010 mb)
S 18.4 mph
(S 30 kph)
- 1 1/4SM
14:15
Overcast
Fog And Mist
36°F / 2°C 34°F / 1°C 93% 29.83 in
(1010 mb)
S 17.3 mph
(S 28 kph)
- 1 1/2SM
13:55
Overcast
Fog And Mist
36°F / 2°C 34°F / 1°C 93% 29.83 in
(1010 mb)
S 17.3 mph
(S 28 kph)
- 2 1/2SM
13:35
Overcast
Fog And Mist
36°F / 2°C 34°F / 1°C 93% 29.83 in
(1010 mb)
S 17.3 mph
(S 28 kph)
- 1 3/4SM
13:15
Overcast
Fog And Mist
36°F / 2°C 34°F / 1°C 93% 29.83 in
(1010 mb)
S 20.7 mph
(S 33 kph)
- 1 1/2SM
12:55
Overcast
Fog And Mist
36°F / 2°C 34°F / 1°C 93% 29.86 in
(1011 mb)
S 19.6 mph
(S 32 kph)
- 2SM
12:35
Overcast
Fog And Mist
36°F / 2°C 34°F / 1°C 93% 29.86 in
(1011 mb)
S 15 mph
(S 24 kph)
- 3SM
12:16
Overcast
Fog And Mist
36°F / 2°C 34°F / 1°C 93% 29.89 in
(1012 mb)
S 20.7 mph
(S 33 kph)
- 3SM
11:55
Overcast
Fog And Mist
34°F / 1°C 34°F / 1°C 100% 29.89 in
(1012 mb)
S 19.6 mph
(S 32 kph)
- 2SM
11:35
Overcast
Fog And Mist
34°F / 1°C 34°F / 1°C 100% 29.89 in
(1012 mb)
S 17.3 mph
(S 28 kph)
- 1 3/4SM
11:16
Overcast
Fog And Mist
34°F / 1°C 34°F / 1°C 100% 29.92 in
(1013 mb)
S 15 mph
(S 24 kph)
- 1 1/4SM
10:55
Overcast
Fog And Mist
34°F / 1°C 34°F / 1°C 100% 29.92 in
(1013 mb)
S 16.1 mph
(S 26 kph)
- 1SM
10:35
Overcast
Fog And Mist
34°F / 1°C 34°F / 1°C 100% 29.92 in
(1013 mb)
S 16.1 mph
(S 26 kph)
- 1SM
10:16
Overcast
Fog And Mist
34°F / 1°C 34°F / 1°C 100% 29.95 in
(1014 mb)
S 13.8 mph
(S 22 kph)
- 1SM
09:55
Overcast
Fog And Mist
34°F / 1°C 34°F / 1°C 100% 29.95 in
(1014 mb)
S 13.8 mph
(S 22 kph)
- 3/4SM
09:35
Overcast
Fog
34°F / 1°C 32°F / 0°C 93% 29.95 in
(1014 mb)
S 15 mph
(S 24 kph)
- 1/2SM
09:16
Overcast
Fog
34°F / 1°C 32°F / 0°C 93% 29.95 in
(1014 mb)
S 13.8 mph
(S 22 kph)
- 1/4SM
08:56
Overcast
Fog
32°F / 0°C 32°F / 0°C 100% 29.95 in
(1014 mb)
S 15 mph
(S 24 kph)
- 1/4SM
08:35
Overcast
Fog
32°F / 0°C 32°F / 0°C 100% 29.95 in
(1014 mb)
S 13.8 mph
(S 22 kph)
- M1/4SM
08:15
Overcast
Fog
32°F / 0°C 32°F / 0°C 100% 29.95 in
(1014 mb)
SSE 17.3 mph
(SSE 28 kph)
- M1/4SM
07:55
Overcast
Fog
32°F / 0°C 32°F / 0°C 100% 29.95 in
(1014 mb)
S 13.8 mph
(S 22 kph)
- M1/4SM
07:35
Overcast
Fog
32°F / 0°C 32°F / 0°C 100% 29.98 in
(1015 mb)
SSE 13.8 mph
(SSE 22 kph)
- 1/4SM
07:15
Overcast
Fog
32°F / 0°C 32°F / 0°C 100% 29.98 in
(1015 mb)
S 12.7 mph
(S 20 kph)
- 1/4SM
06:55
Overcast
Fog
32°F / 0°C 32°F / 0°C 100% 29.98 in
(1015 mb)
SSE 11.5 mph
(SSE 19 kph)
- 1/4SM
06:35
Overcast
Fog
32°F / 0°C 32°F / 0°C 100% 29.98 in
(1015 mb)
S 12.7 mph
(S 20 kph)
- 1/2SM
06:15
Overcast
Fog
32°F / 0°C 32°F / 0°C 100% 29.98 in
(1015 mb)
SSE 10.4 mph
(SSE 17 kph)
- 1/2SM
05:55
Overcast
Fog
32°F / 0°C 32°F / 0°C 100% 30.01 in
(1016 mb)
SSE 10.4 mph
(SSE 17 kph)
- 1/2SM
05:35
Overcast
Fog And Mist
32°F / 0°C 30°F / -1°C 93% 30.01 in
(1016 mb)
SSE 10.4 mph
(SSE 17 kph)
- 3/4SM
05:15
Overcast
Fog And Mist
30°F / -1°C 30°F / -1°C 100% 30.01 in
(1016 mb)
SSE 10.4 mph
(SSE 17 kph)
- 3/4SM
04:55
Overcast
Fog And Mist
30°F / -1°C 30°F / -1°C 100% 30.01 in
(1016 mb)
SSE 10.4 mph
(SSE 17 kph)
- 1 1/4SM
04:35
Overcast
Fog And Mist
30°F / -1°C 30°F / -1°C 100% 30.01 in
(1016 mb)
SSE 9.2 mph
(SSE 15 kph)
- 1SM
04:15
Overcast
Fog And Mist
30°F / -1°C 30°F / -1°C 100% 30.04 in
(1017 mb)
SSE 9.2 mph
(SSE 15 kph)
- 1SM
03:55
Overcast
Fog And Mist
30°F / -1°C 30°F / -1°C 100% 30.04 in
(1017 mb)
SSE 6.9 mph
(SSE 11 kph)
- 1SM
03:35
Overcast
Fog And Mist
30°F / -1°C 30°F / -1°C 100% 30.04 in
(1017 mb)
SSE 9.2 mph
(SSE 15 kph)
- 1SM
03:16
Overcast
Fog And Mist
30°F / -1°C 30°F / -1°C 100% 30.04 in
(1017 mb)
SSE 10.4 mph
(SSE 17 kph)
- 1SM
02:55
Overcast
Fog And Mist
30°F / -1°C 30°F / -1°C 100% 30.06 in
(1018 mb)
SSE 11.5 mph
(SSE 19 kph)
- 3/4SM
02:35
Overcast
Fog
30°F / -1°C 30°F / -1°C 100% 30.06 in
(1018 mb)
SSE 9.2 mph
(SSE 15 kph)
- 1/2SM
02:16
Overcast
Fog
30°F / -1°C 30°F / -1°C 100% 30.06 in
(1018 mb)
SSE 9.2 mph
(SSE 15 kph)
- 1/2SM
01:55
Overcast
Fog
30°F / -1°C 30°F / -1°C 100% 30.06 in
(1018 mb)
SSE 12.7 mph
(SSE 20 kph)
- 1/2SM
01:35
Overcast
Fog
30°F / -1°C 28°F / -2°C 93% 30.06 in
(1018 mb)
SSE 10.4 mph
(SSE 17 kph)
- 1/2SM
01:15
Overcast
Fog And Mist
30°F / -1°C 28°F / -2°C 93% 30.09 in
(1019 mb)
SSE 8.1 mph
(SSE 13 kph)
- 1SM
00:55
Overcast
Fog And Mist
30°F / -1°C 28°F / -2°C 93% 30.09 in
(1019 mb)
SSE 10.4 mph
(SSE 17 kph)
- 1 1/2SM
00:35
Overcast
Fog And Mist
30°F / -1°C 28°F / -2°C 93% 30.09 in
(1019 mb)
SSE 10.4 mph
(SSE 17 kph)
- 2SM
00:15
Overcast
Fog And Mist
30°F / -1°C 28°F / -2°C 93% 30.09 in
(1019 mb)
SSE 9.2 mph
(SSE 15 kph)
- 2SM
Time Weather Temperature Dewpoint Humidity Pressure Winds Precip Visibility


Weather for websites

WeatherForYou.com, LLC is not responsible for any damages or problems caused by this service. Current weather conditions are obtained from the closest station including government and personal stations which may have varying degrees of accuracy. Weather forecasts are derived from the NOAA NDFD. Like all things, this site belongs to Jesus Christ... He just trusts me to maintain it. If you have any questions or comments email webmaster@weatherforyou.com

Copyright © 2014, WeatherForYou.com LLC. All rights reserved.